Home   Weather   Porto Alegre   Past weeks
Flag for Brazil

Past Weather in Porto Alegre, Rio Grande do Sul, Brazil — Yesterday and Last 2 Weeks

Now
61 °F

Mostly cloudy.


Feels Like: 61 °F
Forecast: 66 / 53 °F
Wind: 8 mph from Southwest

Location: Porto Alegre Aero-Porto

Current Time: May 25, 2019 at 12:48:42 am

Latest Report: May 25, 2019 at 12:00 am


Visibility: N/A

Pressure: 30.01 "Hg

Humidity: 88%

Dew Point: 57 °F

Location of Porto AlegreLocation

Past Weather in Porto Alegre — Graph

°F

Porto Alegre Temperature Yesterday

Maximum temperature yesterday: 64 °F (at 10:00 am)
Minimum temperature yesterday: 61 °F (at 6:00 pm)
Average temperature yesterday: 63 °F

High & Low Weather Summary for the Past Weeks

 TemperatureHumidityPressure
High81 °F (May 19, 3:00 pm)100% (May 10, 9:00 am)30.33 "Hg (May 10, 9:00 am)
Low32 °F (May 10, 9:37 am)48% (May 19, 1:00 pm)29.71 "Hg (May 10, 3:00 pm)
Average67 °F89%30.03 "Hg
* Reported May 9 11:00 pm — May 24 11:00 pm, Porto Alegre. Weather by CustomWeather, © 2019

Note: Actual official high and low records may vary slightly from our data, if they occured in-between our weather recording intervals... More about our weather records

Advertising

Porto Alegre Weather History for the Previous 24 Hours

Scroll right to see more
 ConditionsComfort  
Time TempWeatherWind HumidityBarometerVisibility
11:00 pm
Fri, May 24
61 °FMostly cloudy.6 mph88%30.01 "HgN/A
10:00 pm63 °FOvercast.6 mph83%29.98 "HgN/A
9:00 pm63 °FMostly cloudy.6 mph83%29.98 "Hg4 mi
8:00 pm63 °FMostly cloudy.8 mph83%29.95 "Hg6 mi
7:00 pm63 °FFog.5 mph94%29.95 "Hg3 mi
6:00 pm61 °FLight rain. Fog.6 mph100%29.92 "Hg2 mi
5:00 pm64 °FMostly cloudy.8 mph88%29.92 "HgN/A
4:00 pm64 °FMostly cloudy.8 mph88%29.89 "HgN/A
3:00 pm64 °FMostly cloudy.8 mph88%29.89 "Hg6 mi
2:25 pm64 °FMostly cloudy.8 mph94%29.89 "Hg4 mi
2:00 pm63 °FDrizzle. Fog.8 mph100%29.89 "Hg2 mi
1:30 pm63 °FDrizzle. Fog.7 mph100%29.89 "Hg1 mi
1:00 pm64 °FMostly cloudy.8 mph94%29.89 "Hg4 mi
12:00 pm63 °FDrizzle. Fog.14 mph94%29.92 "Hg3 mi
11:00 am64 °FLight rain. Fog.14 mph88%29.95 "Hg3 mi
10:00 am64 °FMostly cloudy.10 mph88%29.95 "Hg5 mi
9:00 am63 °FMostly cloudy.10 mph94%29.92 "Hg5 mi
8:00 am63 °FMostly cloudy.9 mph94%29.89 "Hg4 mi
7:00 am63 °FMostly cloudy.6 mph94%29.89 "Hg4 mi
6:00 am63 °FDrizzle. Mostly cloudy.6 mph94%29.89 "Hg3 mi
5:00 am63 °FMostly cloudy.12 mph94%29.86 "Hg4 mi
4:00 am63 °FLight rain. Mostly cloudy.5 mph100%29.92 "Hg3 mi
3:00 am63 °FLight rain. Mostly cloudy.2 mph94%29.95 "Hg2 mi
2:00 am63 °FLight rain. Mostly cloudy.6 mph94%29.98 "Hg2 mi
1:00 am63 °FLight rain. Mostly cloudy.6 mph100%29.98 "Hg2 mi
12:00 am63 °FLight rain. Mostly cloudy.2 mph100%29.98 "Hg3 mi
Weather by CustomWeather, © 2019

See weather overview